Home   Weather   Mabalacat   Past weeks

Flag for Philippines Past Weather in Mabalacat, Philippines — Yesterday and Last 2 Weeks

Now
86 °F

Sprinkles. Broken clouds.


Feels Like: 99 °F
Forecast: 78 / 89 °F
Wind: 7 mph from Northwest

Location: Clarkfield Pampanga International Airport

Current Time: Aug 31, 2016 at 2:33:29 PM

Latest Report: Aug 31, 2016 at 1:00 PM


Visibility: 5 mi

Pressure: 29.83 "Hg

Humidity: 79%

Dew Point: 79 °F

Location of MabalacatLocation

Past Weather in Mabalacat — Graph

°F

Mabalacat Temperature Yesterday

Maximum temperature yesterday: 88 °F (at 3:00 PM)
Minimum temperature yesterday: 75 °F (at 4:00 AM)
Average temperature yesterday: 81 °F

High & Low Weather Summary for the Past Weeks

 TemperatureHumidityPressure
High91 °F (Aug 21, 4:00 PM)100% (Aug 17, 1:00 AM)30.01 "Hg (Aug 17, 1:00 AM)
Low75 °F (Aug 21, 3:00 AM)59% (Aug 21, 4:00 PM)29.53 "Hg (Aug 22, 9:00 AM)
Average80 °F88%29.75 "Hg
* Reported Aug 16 1:00 PM — Aug 31 1:00 PM, Mabalacat, Weather by CustomWeather, © 2016

Note: Actual official high and low records may vary slightly from our data, if they occured in-between our weather recording intervals... More about our weather records

Advertising

Mabalacat Weather History for the Previous 24 Hours

Scroll right to see more
 ConditionsComfort  
Time TempWeatherWind HumidityBarometerVisibility
1:00 PM
Wed, Aug 31
86 °FSprinkles. Broken clouds.7 mph79%29.83 "Hg5 mi
12:00 PM88 °FSprinkles. Broken clouds.5 mph66%29.86 "Hg6 mi
11:00 AM86 °FBroken clouds.2 mph70%29.89 "HgN/A
10:00 AM84 °FBroken clouds.2 mph74%29.89 "HgN/A
9:00 AM81 °FBroken clouds.3 mph89%29.89 "HgN/A
8:00 AM79 °FPartly sunny.1 mph89%29.89 "HgN/A
7:00 AM77 °FPartly sunny.1 mph89%29.86 "HgN/A
6:00 AM75 °FPartly sunny.3 mph94%29.86 "HgN/A
5:00 AM77 °FPassing clouds.7 mph89%29.86 "HgN/A
4:00 AM77 °FPassing clouds.2 mph89%29.86 "HgN/A
3:00 AM77 °FPassing clouds.3 mph89%29.86 "HgN/A
2:00 AM77 °FPassing clouds.5 mph94%29.86 "HgN/A
1:00 AM77 °FPartly cloudy.3 mph94%29.86 "HgN/A
12:00 AM79 °FPartly cloudy.2 mph89%29.89 "HgN/A
11:00 PM
Tue, Aug 30
79 °FPartly cloudy.1 mph89%29.89 "HgN/A
10:00 PM81 °FPartly cloudy.2 mph84%29.89 "HgN/A
9:00 PM81 °FPartly cloudy.3 mph84%29.86 "HgN/A
8:00 PM82 °FPassing clouds.1 mph79%29.86 "HgN/A
7:00 PM82 °FPassing clouds.1 mph79%29.86 "HgN/A
6:00 PM86 °FPartly sunny.3 mph70%29.83 "HgN/A
5:00 PM88 °FPartly sunny.1 mph66%29.77 "HgN/A
4:00 PM88 °FPartly sunny.1 mph66%29.77 "HgN/A
3:00 PM88 °FBroken clouds.3 mph66%29.80 "HgN/A
2:00 PM86 °FBroken clouds.2 mph79%29.83 "HgN/A
Weather by CustomWeather, © 2016

See weather overviewHow to use our weather pages